Change the Weather History Date:

Thursday, February 21, 2013

  Actual Average Record
Temperature  
Mean Temperature 51 °F 50 °F  
Max Temperature 63 °F 62 °F 92 °F (1996)
Min Temperature 38 °F 38 °F 15 °F (1939)
Degree Days  
Heating Degree Days 14 15  
Month to date heating degree days 280 364  
Since 1 July heating degree days 1699 2033  
Cooling Degree Days 0 0  
Month to date cooling degree days 0 0  
Year to date cooling degree days 6 1  
Moisture  
Dew Point 37 °F    
Average Humidity 63    
Maximum Humidity 100    
Minimum Humidity 25    
Precipitation  
Precipitation 0.18 in 0.05 in 0.75 in (1994)
Month to date precipitation 0.55 1.00  
Year to date precipitation 1.86 2.02  
Sea Level Pressure  
Sea Level Pressure 29.70 in    
Wind  
Wind Speed 16 mph (WNW)    
Max Wind Speed 33 mph    
Max Gust Speed 41 mph    
Visibility 8 miles    
Events Rain , Thunderstorm    
T = Trace of Precipitation, MM = Missing Value Source: NWS Daily Summary

Daily Weather History Graph

Daily Weather History Graph

Search for Another Location

Airport or City:

Trip Planner

Search our weather history database for the weather conditions in past years. The results will help you decide how hot, cold, wet, or windy it might be!

Date:

Astronomy

Feb. 21, 2013 Rise Set
Actual Time 7:14 AM CST 6:30 PM CST
Civil Twilight 6:50 AM CST 6:54 PM CST
Nautical Twilight 6:21 AM CST 7:23 PM CST
Astronomical Twilight 5:53 AM CST 7:52 PM CST
Moon 2:54 PM CST (2/21) 4:11 AM CST (2/21)
Length of Visible Light 12h 04m
Length of Day
11h 15m
Waxing Gibbous, 84% of the Moon is Illuminated
Feb 21
Waxing Gibbous
Feb 25
Full
Mar 4
Last Quarter
Mar 11
New
Mar 19
First Quarter

Hourly Weather History & Observations

Time (CST) Temp. Windchill Dew Point Humidity Pressure Visibility Wind Dir Wind Speed Gust Speed Precip Events Conditions
1:26 AM 44.6 °F 35.9 °F 44.6 °F 100% 29.56 in 3.0 mi SE 23.0 mph 28.8 mph N/A   Overcast
1:52 AM 45.0 °F 36.4 °F 45.0 °F 100% 29.55 in 2.5 mi SE 23.0 mph 29.9 mph N/A   Overcast
2:12 AM 44.6 °F 36.6 °F 44.6 °F 100% 29.55 in 1.8 mi SE 19.6 mph 28.8 mph N/A   Overcast
2:52 AM 46.0 °F 43.1 °F 46.0 °F 100% 29.57 in 1.0 mi SE 5.8 mph - N/A   Mist
3:20 AM 46.4 °F 40.7 °F 46.4 °F 100% 29.55 in 0.8 mi ESE 12.7 mph - N/A   Mist
4:13 AM 48.2 °F - 48.2 °F 100% 29.53 in 2.0 mi SSE 8.1 mph - 0.02 in Rain Light Rain
4:17 AM 48.2 °F - 48.2 °F 100% 29.59 in 3.0 mi WSW 18.4 mph 26.5 mph 0.02 in Rain , Thunderstorm Thunderstorms and Rain
4:22 AM 48.2 °F - 48.2 °F 100% 29.59 in 1.8 mi NW 16.1 mph 32.2 mph 0.09 in Rain , Thunderstorm Thunderstorms and Rain
4:30 AM 48.2 °F - 48.2 °F 100% 29.60 in 3.0 mi WNW 10.4 mph - 0.18 in Rain , Thunderstorm Thunderstorms and Rain
4:49 AM 44.6 °F 36.4 °F 44.6 °F 100% 29.62 in 10.0 mi NW 20.7 mph 31.1 mph 0.18 in   Overcast
4:52 AM 44.1 °F 35.9 °F 44.1 °F 100% 29.62 in 10.0 mi NW 19.6 mph 31.1 mph 0.18 in   Overcast
5:52 AM 42.1 °F 36.6 °F 41.0 °F 96% 29.68 in 10.0 mi NW 9.2 mph - N/A   Overcast
6:52 AM 41.0 °F 36.4 °F 39.9 °F 96% 29.70 in 10.0 mi WNW 6.9 mph - N/A   Overcast
7:52 AM 41.0 °F 35.8 °F 39.9 °F 96% 29.72 in 10.0 mi West 8.1 mph - N/A   Overcast
8:35 AM 42.8 °F 39.3 °F 41.0 °F 93% 29.74 in 10.0 mi WSW 5.8 mph - N/A   Scattered Clouds
8:52 AM 43.0 °F 40.3 °F 41.0 °F 93% 29.74 in 10.0 mi SW 4.6 mph - N/A   Clear
9:52 AM 51.1 °F - 37.0 °F 59% 29.72 in 10.0 mi WSW 15.0 mph - N/A   Clear
10:52 AM 55.0 °F - 26.1 °F 33% 29.72 in 10.0 mi West 25.3 mph 33.4 mph N/A   Clear
11:52 AM 57.0 °F - 24.1 °F 28% 29.71 in 10.0 mi West 26.5 mph 38.0 mph N/A   Clear
12:52 PM 59.0 °F - 24.1 °F 26% 29.70 in 10.0 mi WSW 29.9 mph 39.1 mph N/A   Clear
1:52 PM 60.1 °F - 25.0 °F 26% 29.68 in 10.0 mi West 25.3 mph 35.7 mph N/A   Clear
2:52 PM 61.0 °F - 26.1 °F 26% 29.69 in 10.0 mi WSW 18.4 mph 35.7 mph N/A   Clear
3:52 PM 63.0 °F - 28.0 °F 27% 29.70 in 10.0 mi WNW 23.0 mph 32.2 mph N/A   Clear
4:52 PM 62.1 °F - 28.0 °F 28% 29.70 in 10.0 mi West 23.0 mph 32.2 mph N/A   Clear
5:52 PM 61.0 °F - 28.9 °F 30% 29.74 in 10.0 mi West 12.7 mph - N/A   Clear
6:52 PM 55.0 °F - 37.0 °F 51% 29.79 in 10.0 mi North 10.4 mph - N/A   Clear
7:52 PM 51.1 °F - 36.0 °F 56% 29.85 in 10.0 mi North 8.1 mph - N/A   Clear
8:52 PM 48.0 °F - 37.0 °F 66% 29.89 in 10.0 mi North 9.2 mph - N/A   Clear
9:52 PM 44.1 °F 39.0 °F 35.1 °F 71% 29.92 in 10.0 mi North 9.2 mph - N/A   Clear
10:52 PM 41.0 °F 34.3 °F 34.0 °F 76% 29.91 in 10.0 mi North 11.5 mph - N/A   Clear
11:52 PM 37.9 °F 30.0 °F 30.9 °F 76% 29.93 in 10.0 mi North 12.7 mph - N/A   Clear